Williamsport, PA

1:54 PM EDT on July 22, 2017 (GMT -0400)
Williamsport Rgnl

Weather History for KIPT - February, 2012

Change the Weather History Date:

Sunday, February 5, 2012

  Actual Average Record
Temperature  
Mean Temperature 33 °F 28 °F  
Max Temperature 40 °F 36 °F 53 °F (1993)
Min Temperature 25 °F 20 °F -10 °F (1918)
Degree Days  
Heating Degree Days 32 37  
Month to date heating degree days 139 186  
Since 1 July heating degree days 3049 3665  
Cooling Degree Days 0 0  
Month to date cooling degree days 0 0  
Year to date cooling degree days 0 0  
Moisture  
Dew Point 21 °F    
Average Humidity 65    
Maximum Humidity 85    
Minimum Humidity 44    
Precipitation  
Precipitation 0.00 in 0.09 in 0.92 in (2014)
Month to date precipitation T 0.43  
Year to date precipitation 2.99 3.13  
Snow  
Snow 0.00 in 0.30 in 7.80 in (1908)
Month to date snowfall 0.0 1.7  
Since 1 July snowfall 8.1 20.9  
Snow Depth 0.00 in    
Sea Level Pressure  
Sea Level Pressure 30.17 in    
Wind  
Wind Speed 2 mph (NNW)    
Max Wind Speed 13 mph    
Max Gust Speed 16 mph    
Visibility 10 miles    
Events      
T = Trace of Precipitation, MM = Missing Value Source: NWS Daily Summary

Daily Weather History Graph

Daily Weather History Graph

Search for Another Location

Airport or City:

Trip Planner

Search our weather history database for the weather conditions in past years. The results will help you decide how hot, cold, wet, or windy it might be!

Date:

Astronomy

Feb. 05, 2012 Rise Set
Actual Time 7:15 AM EST 5:28 PM EST
Civil Twilight 6:46 AM EST 5:57 PM EST
Nautical Twilight 6:13 AM EST 6:30 PM EST
Astronomical Twilight 5:41 AM EST 7:02 PM EST
Moon 3:24 PM EST (2/5) 5:25 AM EST (2/5)
Length of Visible Light 11h 11m
Length of Day
10h 13m
Waxing Gibbous, 94% of the Moon is Illuminated
Feb 5
Waxing Gibbous
Feb 7
Full
Feb 14
Last Quarter
Feb 21
New
Feb 29
First Quarter

Hourly Weather History & Observations

Time (EST) Temp. Windchill Dew Point Humidity Pressure Visibility Wind Dir Wind Speed Gust Speed Precip Events Conditions
12:54 AM 28.0 °F - 23.0 °F 81% 30.14 in 10.0 mi Calm Calm - N/A   Clear
1:54 AM 28.0 °F - 23.0 °F 81% 30.14 in 10.0 mi Calm Calm - N/A   Clear
2:54 AM 28.0 °F - 23.0 °F 81% 30.14 in 10.0 mi Calm Calm - N/A   Clear
3:54 AM 28.0 °F - 24.1 °F 85% 30.14 in 10.0 mi Calm Calm - N/A   Clear
4:54 AM 28.9 °F - 25.0 °F 85% 30.15 in 10.0 mi Calm Calm - N/A   Clear
5:54 AM 30.0 °F - 24.1 °F 79% 30.15 in 10.0 mi Calm Calm - N/A   Clear
6:54 AM 28.9 °F - 24.1 °F 82% 30.16 in 10.0 mi Calm Calm - N/A   Clear
7:54 AM 28.9 °F - 23.0 °F 78% 30.19 in 10.0 mi Calm Calm - N/A   Overcast
8:54 AM 30.9 °F - 21.0 °F 67% 30.19 in 10.0 mi Calm Calm - N/A   Mostly Cloudy
9:54 AM 32.0 °F - 21.0 °F 64% 30.20 in 10.0 mi Calm Calm - N/A   Overcast
10:54 AM 36.0 °F - 21.0 °F 55% 30.21 in 10.0 mi Calm Calm - N/A   Partly Cloudy
11:54 AM 37.0 °F 33.3 °F 21.0 °F 52% 30.19 in 10.0 mi WSW 4.6 mph - N/A   Scattered Clouds
12:54 PM 39.0 °F 34.8 °F 19.0 °F 45% 30.17 in 10.0 mi NNW 5.8 mph - N/A   Overcast
1:54 PM 39.0 °F 34.0 °F 19.0 °F 45% 30.15 in 10.0 mi North 6.9 mph - N/A   Overcast
2:54 PM 39.0 °F 34.0 °F 19.0 °F 45% 30.16 in 10.0 mi North 6.9 mph - N/A   Overcast
3:54 PM 39.0 °F 35.7 °F 19.0 °F 45% 30.16 in 10.0 mi North 4.6 mph - N/A   Overcast
4:54 PM 37.9 °F 34.4 °F 19.0 °F 47% 30.17 in 10.0 mi NNW 4.6 mph - N/A   Overcast
5:54 PM 37.0 °F - 18.0 °F 46% 30.18 in 10.0 mi Calm Calm - N/A   Overcast
6:54 PM 34.0 °F 31.0 °F 21.9 °F 61% 30.19 in 10.0 mi WNW 3.5 mph - N/A   Mostly Cloudy
7:54 PM 30.0 °F - 21.0 °F 69% 30.20 in 10.0 mi Calm Calm - N/A   Clear
8:54 PM 28.9 °F - 21.0 °F 72% 30.20 in 10.0 mi Calm Calm - N/A   Clear
9:54 PM 27.0 °F - 19.9 °F 75% 30.20 in 10.0 mi Calm Calm - N/A   Clear
10:54 PM 27.0 °F - 19.9 °F 75% 30.20 in 10.0 mi Calm Calm - N/A   Clear
11:54 PM 25.0 °F - 19.9 °F 81% 30.20 in 10.0 mi Calm Calm - N/A   Clear